Year,Month,Day,Hour,Minute,Value (Times are PST for temperature in C)
2016,07,10,00,00,13.20
2016,07,10,00,01,13.20
2016,07,10,00,02,13.20
2016,07,10,00,03,13.20
2016,07,10,00,04,13.20
2016,07,10,00,05,13.20
2016,07,10,00,06,13.20
2016,07,10,00,07,13.10
2016,07,10,00,08,13.10
2016,07,10,00,09,13.10
2016,07,10,00,10,13.10
2016,07,10,00,11,13.10
2016,07,10,00,12,13.10
2016,07,10,00,13,13.10
2016,07,10,00,14,13.10
2016,07,10,00,15,13.10
2016,07,10,00,16,13.10
2016,07,10,00,17,13.10
2016,07,10,00,18,13.00
2016,07,10,00,19,13.00
2016,07,10,00,20,13.00
2016,07,10,00,21,13.00
2016,07,10,00,22,13.00
2016,07,10,00,23,13.00
2016,07,10,00,24,13.00
2016,07,10,00,25,13.00
2016,07,10,00,26,13.00
2016,07,10,00,27,13.00
2016,07,10,00,28,13.00
2016,07,10,00,29,13.00
2016,07,10,00,30,13.00
2016,07,10,00,31,13.00
2016,07,10,00,32,13.00
2016,07,10,00,33,13.00
2016,07,10,00,34,13.00
2016,07,10,00,35,13.00
2016,07,10,00,36,13.00
2016,07,10,00,37,13.00
2016,07,10,00,38,13.00
2016,07,10,00,39,13.00
2016,07,10,00,40,13.00
2016,07,10,00,41,13.00
2016,07,10,00,42,13.00
2016,07,10,00,43,13.00
2016,07,10,00,44,13.00
2016,07,10,00,45,13.00
2016,07,10,00,46,12.90
2016,07,10,00,47,12.90
2016,07,10,00,48,12.90
2016,07,10,00,49,12.90
2016,07,10,00,50,12.90
2016,07,10,00,51,12.90
2016,07,10,00,52,12.90
2016,07,10,00,53,12.90
2016,07,10,00,54,12.90
2016,07,10,00,55,12.90
2016,07,10,00,56,12.90
2016,07,10,00,57,12.90
2016,07,10,00,58,12.80
2016,07,10,00,59,12.80
2016,07,10,01,00,12.80
2016,07,10,01,01,12.80
2016,07,10,01,02,12.80
2016,07,10,01,03,12.80
2016,07,10,01,04,12.80
2016,07,10,01,05,12.80
2016,07,10,01,06,12.80
2016,07,10,01,07,12.80
2016,07,10,01,08,12.80
2016,07,10,01,09,12.80
2016,07,10,01,10,12.80
2016,07,10,01,11,12.80
2016,07,10,01,12,12.80
2016,07,10,01,13,12.80
2016,07,10,01,14,12.80
2016,07,10,01,48,12.70
2016,07,10,01,49,12.70
2016,07,10,01,50,12.70
2016,07,10,01,51,12.70
2016,07,10,01,52,12.70
2016,07,10,01,53,12.70
2016,07,10,01,54,12.70
2016,07,10,01,55,12.70
2016,07,10,01,56,12.70
2016,07,10,01,57,12.60
2016,07,10,01,58,12.60
2016,07,10,01,59,12.60
2016,07,10,02,00,12.60
2016,07,10,02,01,12.60
2016,07,10,02,02,12.60
2016,07,10,02,03,12.60
2016,07,10,02,04,12.60
2016,07,10,02,05,12.60
2016,07,10,02,06,12.60
2016,07,10,02,07,12.60
2016,07,10,02,08,12.60
2016,07,10,02,09,12.50
2016,07,10,02,10,12.50
2016,07,10,02,11,12.50
2016,07,10,02,12,12.50
2016,07,10,02,13,12.50
2016,07,10,02,14,12.50
2016,07,10,02,15,12.50
2016,07,10,02,16,12.40
2016,07,10,02,17,12.40
2016,07,10,02,18,12.40
2016,07,10,02,19,12.40
2016,07,10,02,20,12.40
2016,07,10,02,21,12.40
2016,07,10,02,22,12.50
2016,07,10,02,23,12.50
2016,07,10,02,24,12.50
2016,07,10,02,25,12.50
2016,07,10,02,26,12.50
2016,07,10,02,27,12.50
2016,07,10,02,28,12.50
2016,07,10,02,29,12.50
2016,07,10,02,30,12.50
2016,07,10,02,31,12.40
2016,07,10,02,32,12.50
2016,07,10,02,33,12.40
2016,07,10,02,34,12.50
2016,07,10,02,35,12.50
2016,07,10,02,36,12.50
2016,07,10,02,37,12.50
2016,07,10,02,38,12.50
2016,07,10,02,39,12.50
2016,07,10,02,40,12.60
2016,07,10,02,41,12.50
2016,07,10,02,42,12.60
2016,07,10,02,43,12.60
2016,07,10,02,44,12.60
2016,07,10,02,45,12.60
2016,07,10,02,46,12.60
2016,07,10,02,47,12.60
2016,07,10,02,48,12.60
2016,07,10,02,49,12.60
2016,07,10,02,50,12.60
2016,07,10,02,51,12.60
2016,07,10,02,52,12.60
2016,07,10,02,53,12.60
2016,07,10,02,54,12.60
2016,07,10,02,55,12.60
2016,07,10,02,56,12.60
2016,07,10,02,57,12.60
2016,07,10,02,58,12.60
2016,07,10,02,59,12.60
2016,07,10,03,00,12.60
2016,07,10,03,01,12.60
2016,07,10,03,02,12.60
2016,07,10,03,03,12.60
2016,07,10,03,04,12.60
2016,07,10,03,05,12.60
2016,07,10,03,06,12.60
2016,07,10,03,07,12.60
2016,07,10,03,08,12.60
2016,07,10,03,09,12.60
2016,07,10,03,10,12.60
2016,07,10,03,11,12.60
2016,07,10,03,12,12.60
2016,07,10,03,13,12.60
2016,07,10,03,14,12.60
2016,07,10,03,15,12.60
2016,07,10,03,16,12.60
2016,07,10,03,17,12.60
2016,07,10,03,18,12.60
2016,07,10,03,19,12.60
2016,07,10,03,20,12.60
2016,07,10,03,21,12.60
2016,07,10,03,22,12.60
2016,07,10,03,23,12.60
2016,07,10,03,24,12.60
2016,07,10,03,25,12.60
2016,07,10,03,26,12.60
2016,07,10,03,27,12.60
2016,07,10,03,28,12.60
2016,07,10,03,29,12.60
2016,07,10,03,30,12.60
2016,07,10,03,31,12.60
2016,07,10,03,32,12.60
2016,07,10,03,33,12.60
2016,07,10,03,34,12.60
2016,07,10,03,35,12.60
2016,07,10,03,36,12.60
2016,07,10,03,37,12.60
2016,07,10,03,38,12.60
2016,07,10,03,39,12.60
2016,07,10,03,40,12.60
2016,07,10,03,41,12.60
2016,07,10,03,42,12.50
2016,07,10,03,43,12.50
2016,07,10,03,44,12.50
2016,07,10,03,45,12.50
2016,07,10,03,46,12.50
2016,07,10,03,47,12.50
2016,07,10,03,48,12.50
2016,07,10,03,49,12.40
2016,07,10,03,50,12.40
2016,07,10,03,51,12.40
2016,07,10,03,52,12.40
2016,07,10,03,53,12.40
2016,07,10,03,54,12.40
2016,07,10,03,55,12.40
2016,07,10,03,56,12.40
2016,07,10,03,57,12.40
2016,07,10,03,58,12.40
2016,07,10,03,59,12.40
2016,07,10,04,00,12.40
2016,07,10,04,01,12.40
2016,07,10,04,02,12.40
2016,07,10,04,03,12.40
2016,07,10,04,04,12.40
2016,07,10,04,05,12.40
2016,07,10,04,06,12.40
2016,07,10,04,07,12.40
2016,07,10,04,08,12.40
2016,07,10,04,09,12.40
2016,07,10,04,10,12.40
2016,07,10,04,11,12.50
2016,07,10,04,12,12.50
2016,07,10,04,13,12.50
2016,07,10,04,14,12.50
2016,07,10,04,15,12.50
2016,07,10,04,16,12.50
2016,07,10,04,17,12.40
2016,07,10,04,18,12.40
2016,07,10,04,19,12.40
2016,07,10,04,20,12.40
2016,07,10,04,21,12.40
2016,07,10,04,22,12.40
2016,07,10,04,23,12.40
2016,07,10,04,24,12.40
2016,07,10,04,25,12.40
2016,07,10,04,26,12.40
2016,07,10,04,27,12.40
2016,07,10,04,28,12.40
2016,07,10,04,29,12.40
2016,07,10,04,30,12.40
2016,07,10,04,31,12.40
2016,07,10,04,32,12.40
2016,07,10,04,33,12.50
2016,07,10,04,34,12.50
2016,07,10,04,35,12.50
2016,07,10,04,36,12.60
2016,07,10,04,37,12.60
2016,07,10,04,38,12.60
2016,07,10,04,39,12.60
2016,07,10,04,40,12.60
2016,07,10,04,41,12.60
2016,07,10,04,42,12.60
2016,07,10,04,43,12.60
2016,07,10,04,44,12.60
2016,07,10,04,45,12.60
2016,07,10,04,46,12.60
2016,07,10,04,47,12.60
2016,07,10,04,48,12.60
2016,07,10,04,49,12.60
2016,07,10,04,50,12.60
2016,07,10,04,51,12.60
2016,07,10,04,52,12.60
2016,07,10,04,53,12.60
2016,07,10,04,54,12.60
2016,07,10,04,55,12.60
2016,07,10,04,56,12.60
2016,07,10,04,57,12.50
2016,07,10,04,58,12.50
2016,07,10,04,59,12.50
2016,07,10,05,00,12.50
2016,07,10,05,01,12.50
2016,07,10,05,02,12.40
2016,07,10,05,03,12.40
2016,07,10,05,04,12.40
2016,07,10,05,05,12.40
2016,07,10,05,06,12.40
2016,07,10,05,07,12.40
2016,07,10,05,08,12.40
2016,07,10,05,09,12.50
2016,07,10,05,10,12.50
2016,07,10,05,11,12.50
2016,07,10,05,12,12.50
2016,07,10,05,13,12.50
2016,07,10,05,14,12.50
2016,07,10,05,15,12.50
2016,07,10,05,16,12.50
2016,07,10,05,17,12.50
2016,07,10,05,18,12.50
2016,07,10,05,19,12.50
2016,07,10,05,20,12.50
2016,07,10,05,21,12.50
2016,07,10,05,22,12.50
2016,07,10,05,23,12.50
2016,07,10,05,24,12.50
2016,07,10,05,25,12.50
2016,07,10,05,26,12.60
2016,07,10,05,27,12.60
2016,07,10,05,28,12.60
2016,07,10,05,29,12.60
2016,07,10,05,30,12.60
2016,07,10,05,31,12.60
2016,07,10,05,32,12.60
2016,07,10,05,33,12.60
2016,07,10,05,34,12.60
2016,07,10,05,35,12.60
2016,07,10,05,36,12.50
2016,07,10,05,37,12.50
2016,07,10,05,38,12.50
2016,07,10,05,39,12.50
2016,07,10,05,40,12.50
2016,07,10,05,41,12.50
2016,07,10,05,42,12.50
2016,07,10,05,43,12.60
2016,07,10,05,44,12.60
2016,07,10,05,45,12.50
2016,07,10,05,46,12.50
2016,07,10,05,47,12.60
2016,07,10,05,48,12.60
2016,07,10,05,49,12.60
2016,07,10,05,50,12.60
2016,07,10,05,51,12.60
2016,07,10,05,52,12.60
2016,07,10,05,53,12.60
2016,07,10,05,54,12.60
2016,07,10,05,55,12.60
2016,07,10,05,56,12.60
2016,07,10,05,57,12.60
2016,07,10,05,58,12.60
2016,07,10,05,59,12.60
2016,07,10,06,00,12.60
2016,07,10,06,01,12.60
2016,07,10,06,02,12.60
2016,07,10,06,03,12.60
2016,07,10,06,04,12.60
2016,07,10,06,05,12.60
2016,07,10,06,06,12.60
2016,07,10,06,07,12.60
2016,07,10,06,08,12.70
2016,07,10,06,09,12.70
2016,07,10,06,10,12.70
2016,07,10,06,11,12.70
2016,07,10,06,12,12.70
2016,07,10,06,13,12.70
2016,07,10,06,14,12.70
2016,07,10,06,15,12.70
2016,07,10,06,16,12.70
2016,07,10,06,17,12.70
2016,07,10,06,18,12.70
2016,07,10,06,19,12.70
2016,07,10,06,20,12.70
2016,07,10,06,21,12.70
2016,07,10,06,22,12.70
2016,07,10,06,23,12.70
2016,07,10,06,24,12.70
2016,07,10,06,25,12.70
2016,07,10,06,26,12.70
2016,07,10,06,27,12.70
2016,07,10,06,28,12.70
2016,07,10,06,29,12.70
2016,07,10,06,30,12.70
2016,07,10,06,31,12.70
2016,07,10,06,32,12.70
2016,07,10,06,33,12.70
2016,07,10,06,34,12.70
2016,07,10,06,35,12.70
2016,07,10,06,36,12.70
2016,07,10,06,37,12.80
2016,07,10,06,38,12.80
2016,07,10,06,39,12.80
2016,07,10,06,40,12.80
2016,07,10,06,41,12.80
2016,07,10,06,42,12.80
2016,07,10,06,43,12.80
2016,07,10,06,44,12.80
2016,07,10,06,45,12.80
2016,07,10,06,46,12.80
2016,07,10,06,47,12.80
2016,07,10,06,48,12.90
2016,07,10,06,49,12.90
2016,07,10,06,50,12.90
2016,07,10,06,51,12.90
2016,07,10,06,52,12.90
2016,07,10,06,53,12.90
2016,07,10,06,54,12.90
2016,07,10,06,55,12.90
2016,07,10,06,56,12.90
2016,07,10,06,57,12.90
2016,07,10,06,58,12.90
2016,07,10,06,59,12.90
2016,07,10,07,00,12.90
2016,07,10,07,01,13.00
2016,07,10,07,02,13.10
2016,07,10,07,03,13.10
2016,07,10,07,04,13.10
2016,07,10,07,05,13.10
2016,07,10,07,06,13.10
2016,07,10,07,07,13.10
2016,07,10,07,08,13.10
2016,07,10,07,09,13.10
2016,07,10,07,10,13.10
2016,07,10,07,11,13.10
2016,07,10,07,12,13.10
2016,07,10,07,13,13.10
2016,07,10,07,14,13.10
2016,07,10,07,15,13.10
2016,07,10,07,16,13.10
2016,07,10,07,17,13.20
2016,07,10,07,18,13.20
2016,07,10,07,19,13.20
2016,07,10,07,20,13.20
2016,07,10,07,21,13.10
2016,07,10,07,22,13.10
2016,07,10,07,23,13.10
2016,07,10,07,24,13.10
2016,07,10,07,25,13.10
2016,07,10,07,26,13.10
2016,07,10,07,27,13.10
2016,07,10,07,28,13.10
2016,07,10,07,29,13.10
2016,07,10,07,30,13.10
2016,07,10,07,31,13.10
2016,07,10,07,32,13.10
2016,07,10,07,33,13.10
2016,07,10,07,34,13.10
2016,07,10,07,35,13.10
2016,07,10,07,36,13.10
2016,07,10,07,37,13.20
2016,07,10,07,38,13.20
2016,07,10,07,39,13.20
2016,07,10,07,40,13.30
2016,07,10,07,41,13.30
2016,07,10,07,42,13.30
2016,07,10,07,43,13.40
2016,07,10,07,44,13.40
2016,07,10,07,45,13.40
2016,07,10,07,46,13.40
2016,07,10,07,47,13.40
2016,07,10,07,48,13.50
2016,07,10,07,49,13.50
2016,07,10,07,50,13.60
2016,07,10,07,51,13.60
2016,07,10,07,52,13.70
2016,07,10,07,53,13.70
2016,07,10,07,54,13.70
2016,07,10,07,55,13.70
2016,07,10,07,56,13.80
2016,07,10,07,57,13.80
2016,07,10,07,58,13.80
2016,07,10,07,59,13.80
2016,07,10,08,00,13.80
2016,07,10,08,01,13.80
2016,07,10,08,02,13.80
2016,07,10,08,03,13.80
2016,07,10,08,04,13.80
2016,07,10,08,05,13.80
2016,07,10,08,06,13.80
2016,07,10,08,07,13.90
2016,07,10,08,08,13.90
2016,07,10,08,09,13.90
2016,07,10,08,10,13.90
2016,07,10,08,11,13.90
2016,07,10,08,12,13.90
2016,07,10,08,13,13.90
2016,07,10,08,14,13.90
2016,07,10,08,15,13.80
2016,07,10,08,16,13.90
2016,07,10,08,17,13.90
2016,07,10,08,18,13.90
2016,07,10,08,19,13.90
2016,07,10,08,20,14.00
2016,07,10,08,21,14.00
2016,07,10,08,22,14.00
2016,07,10,08,23,14.00
2016,07,10,08,24,14.00
2016,07,10,08,25,14.10
2016,07,10,08,26,14.10
2016,07,10,08,27,14.10
2016,07,10,08,28,14.10
2016,07,10,08,29,14.20
2016,07,10,08,30,14.20
2016,07,10,08,31,14.20
2016,07,10,08,32,14.30
2016,07,10,08,33,14.30
2016,07,10,08,34,14.30
2016,07,10,08,35,14.30
2016,07,10,08,36,14.30
2016,07,10,08,37,14.30
2016,07,10,08,38,14.30
2016,07,10,08,39,14.30
2016,07,10,08,40,14.30
2016,07,10,08,41,14.30
2016,07,10,08,42,14.30
2016,07,10,08,43,14.30
2016,07,10,08,44,14.30
2016,07,10,08,45,14.40
2016,07,10,08,46,14.40
2016,07,10,08,47,14.40
2016,07,10,08,48,14.50
2016,07,10,08,49,14.50
2016,07,10,08,50,14.50
2016,07,10,08,51,14.60
2016,07,10,08,52,14.60
2016,07,10,08,53,14.60
2016,07,10,08,54,14.60
2016,07,10,08,55,14.60
2016,07,10,08,56,14.60
2016,07,10,08,57,14.60
2016,07,10,08,58,14.60
2016,07,10,08,59,14.50
2016,07,10,09,00,14.50
2016,07,10,09,01,14.50
2016,07,10,09,02,14.50
2016,07,10,09,03,14.50
2016,07,10,09,04,14.50
2016,07,10,09,05,14.60
2016,07,10,09,06,14.60
2016,07,10,09,07,14.70
2016,07,10,09,08,14.70
2016,07,10,09,09,14.70
2016,07,10,09,10,14.80
2016,07,10,09,11,14.80
2016,07,10,09,12,14.80
2016,07,10,09,13,14.80
2016,07,10,09,14,14.80
2016,07,10,09,15,14.90
2016,07,10,09,16,14.90
2016,07,10,09,17,15.00
2016,07,10,09,18,15.10
2016,07,10,09,19,15.10
2016,07,10,09,20,15.20
2016,07,10,09,21,15.20
2016,07,10,09,22,15.30
2016,07,10,09,23,15.30
2016,07,10,09,24,15.40
2016,07,10,09,25,15.40
2016,07,10,09,26,15.50
2016,07,10,09,27,15.60
2016,07,10,09,28,15.60
2016,07,10,09,29,15.60
2016,07,10,09,30,15.70
2016,07,10,09,31,15.70
2016,07,10,09,32,15.70
2016,07,10,09,33,15.70
2016,07,10,09,34,15.70
2016,07,10,09,35,15.70
2016,07,10,09,36,15.80
2016,07,10,09,37,15.80
2016,07,10,09,38,15.80
2016,07,10,09,39,15.80
2016,07,10,09,40,15.80
2016,07,10,09,41,15.80
2016,07,10,09,42,15.80
2016,07,10,09,43,15.80
2016,07,10,09,44,15.90
2016,07,10,09,45,15.90
2016,07,10,09,46,15.90
2016,07,10,09,47,15.80
2016,07,10,09,48,15.70
2016,07,10,09,49,15.60
2016,07,10,09,50,15.60
2016,07,10,09,51,15.50
2016,07,10,09,52,15.40
2016,07,10,09,53,15.30
2016,07,10,09,54,15.30
2016,07,10,09,55,15.30
2016,07,10,09,56,15.40
2016,07,10,09,57,15.40
2016,07,10,09,58,15.40
2016,07,10,09,59,15.40
2016,07,10,10,00,15.50
2016,07,10,10,01,15.60
2016,07,10,10,02,15.60
2016,07,10,10,03,15.70
2016,07,10,10,04,15.80
2016,07,10,10,05,15.80
2016,07,10,10,06,15.80
2016,07,10,10,07,15.90
2016,07,10,10,08,15.90
2016,07,10,10,09,15.90
2016,07,10,10,10,15.90
2016,07,10,10,11,16.00
2016,07,10,10,12,16.00
2016,07,10,10,13,16.00
2016,07,10,10,14,16.10
2016,07,10,10,15,16.10
2016,07,10,10,16,16.10
2016,07,10,10,17,16.00
2016,07,10,10,18,15.90
2016,07,10,10,19,15.90
2016,07,10,10,20,15.90
2016,07,10,10,21,15.80
2016,07,10,10,22,15.80
2016,07,10,10,23,15.80
2016,07,10,10,24,15.80
2016,07,10,10,25,15.80
2016,07,10,10,26,15.90
2016,07,10,10,27,15.90
2016,07,10,10,28,16.00
2016,07,10,10,29,16.00
2016,07,10,10,30,16.00
2016,07,10,10,31,16.00
2016,07,10,10,32,16.00
2016,07,10,10,33,16.00
2016,07,10,10,34,16.00
2016,07,10,10,35,16.10
2016,07,10,10,36,16.10
2016,07,10,10,37,16.20
2016,07,10,10,38,16.10
2016,07,10,10,39,16.10
2016,07,10,10,40,16.00
2016,07,10,10,41,15.80
2016,07,10,10,42,15.80
2016,07,10,10,43,15.80
2016,07,10,10,44,15.70
2016,07,10,10,45,15.70
2016,07,10,10,46,15.70
2016,07,10,10,47,15.70
2016,07,10,10,48,15.70
2016,07,10,10,49,15.70
2016,07,10,10,50,15.80
2016,07,10,10,51,15.80
2016,07,10,10,52,15.90
2016,07,10,10,53,15.90
2016,07,10,10,54,16.00
2016,07,10,10,55,16.00
2016,07,10,10,56,16.10
2016,07,10,10,57,16.10
2016,07,10,10,58,16.20
2016,07,10,10,59,16.40
2016,07,10,11,00,16.50
2016,07,10,11,01,16.60
2016,07,10,11,02,16.70
2016,07,10,11,03,16.90
2016,07,10,11,04,17.00
2016,07,10,11,05,17.10
2016,07,10,11,06,17.10
2016,07,10,11,07,17.10
2016,07,10,11,08,17.10
2016,07,10,11,09,17.10
2016,07,10,11,10,17.00
2016,07,10,11,11,16.90
2016,07,10,11,12,16.80
2016,07,10,11,13,16.70
2016,07,10,11,14,16.60
2016,07,10,11,15,16.60
2016,07,10,11,16,16.50
2016,07,10,11,17,16.40
2016,07,10,11,18,16.30
2016,07,10,11,19,16.30
2016,07,10,11,20,16.30
2016,07,10,11,21,16.20
2016,07,10,11,22,16.20
2016,07,10,11,23,16.20
2016,07,10,11,24,16.20
2016,07,10,11,25,16.20
2016,07,10,11,26,16.20
2016,07,10,11,27,16.20
2016,07,10,11,28,16.20
2016,07,10,11,29,16.30
2016,07,10,11,30,16.40
2016,07,10,11,31,16.50
2016,07,10,11,32,16.50
2016,07,10,11,33,16.60
2016,07,10,11,34,16.70
2016,07,10,11,35,16.80
2016,07,10,11,36,17.00
2016,07,10,11,37,17.00
2016,07,10,11,38,16.90
2016,07,10,11,39,16.90
2016,07,10,11,40,16.90
2016,07,10,11,41,16.90
2016,07,10,11,42,16.90
2016,07,10,11,43,16.90
2016,07,10,11,44,17.00
2016,07,10,11,45,17.00
2016,07,10,11,46,17.10
2016,07,10,11,47,17.10
2016,07,10,11,48,17.10
2016,07,10,11,49,17.00
2016,07,10,11,50,17.00
2016,07,10,11,51,16.90
2016,07,10,11,52,16.80
2016,07,10,11,53,16.80
2016,07,10,11,54,16.70
2016,07,10,11,55,16.60
2016,07,10,11,56,16.50
2016,07,10,11,57,16.50
2016,07,10,11,58,16.50
2016,07,10,11,59,16.40
2016,07,10,12,00,16.40
2016,07,10,12,01,16.40
2016,07,10,12,02,16.40
2016,07,10,12,03,16.40
2016,07,10,12,04,16.40
2016,07,10,12,05,16.40
2016,07,10,12,06,16.40
2016,07,10,12,07,16.40
2016,07,10,12,08,16.40
2016,07,10,12,09,16.30
2016,07,10,12,10,16.20
2016,07,10,12,11,16.10
2016,07,10,12,12,15.90
2016,07,10,12,13,15.80
2016,07,10,12,14,15.70
2016,07,10,12,15,15.60
2016,07,10,12,16,15.50
2016,07,10,12,17,15.40
2016,07,10,12,18,15.30
2016,07,10,12,19,15.10
2016,07,10,12,20,15.00
2016,07,10,12,21,14.90
2016,07,10,12,22,14.90
2016,07,10,12,23,14.80
2016,07,10,12,24,14.80
2016,07,10,12,25,14.70
2016,07,10,12,26,14.70
2016,07,10,12,27,14.70
2016,07,10,12,28,14.70
2016,07,10,12,29,14.70
2016,07,10,12,30,14.70
2016,07,10,12,31,14.70
2016,07,10,12,32,14.70
2016,07,10,12,33,14.70
2016,07,10,12,34,14.80
2016,07,10,12,35,14.90
2016,07,10,12,36,15.00
2016,07,10,12,37,15.00
2016,07,10,12,38,15.10
2016,07,10,12,39,15.20
2016,07,10,12,40,15.30
2016,07,10,12,41,15.20
2016,07,10,12,42,15.20
2016,07,10,12,43,15.10
2016,07,10,12,44,15.00
2016,07,10,12,45,14.80
2016,07,10,12,46,14.70
2016,07,10,12,47,14.50
2016,07,10,12,48,14.40
2016,07,10,12,49,14.40
2016,07,10,12,50,14.40
2016,07,10,12,51,14.40
2016,07,10,12,52,14.40
2016,07,10,12,53,14.50
2016,07,10,12,54,14.50
2016,07,10,12,55,14.50
2016,07,10,12,56,14.70
2016,07,10,12,57,14.80
2016,07,10,12,58,14.80
2016,07,10,12,59,14.90
2016,07,10,13,00,15.00
2016,07,10,13,01,15.00
2016,07,10,13,02,15.00
2016,07,10,13,03,15.00
2016,07,10,13,04,15.10
2016,07,10,13,05,15.10
2016,07,10,13,06,15.10
2016,07,10,13,07,15.10
2016,07,10,13,08,15.10
2016,07,10,13,09,15.00
2016,07,10,13,10,14.90
2016,07,10,13,11,14.70
2016,07,10,13,12,14.70
2016,07,10,13,13,14.70
2016,07,10,13,14,14.70
2016,07,10,13,15,14.70
2016,07,10,13,16,14.60
2016,07,10,13,17,14.60
2016,07,10,13,18,14.60
2016,07,10,13,19,14.60
2016,07,10,13,20,14.70
2016,07,10,13,21,14.70
2016,07,10,13,22,14.80
2016,07,10,13,23,14.90
2016,07,10,13,24,14.90
2016,07,10,13,25,14.90
2016,07,10,13,26,15.00
2016,07,10,13,27,15.10
2016,07,10,13,28,15.30
2016,07,10,13,29,15.40
2016,07,10,13,30,15.60
2016,07,10,13,31,15.70
2016,07,10,13,32,15.70
2016,07,10,13,33,15.60
2016,07,10,13,34,15.50
2016,07,10,13,35,15.30
2016,07,10,13,36,15.20
2016,07,10,13,37,15.00
2016,07,10,13,38,15.00
2016,07,10,13,39,14.90
2016,07,10,13,40,15.00
2016,07,10,13,41,15.00
2016,07,10,13,42,14.90
2016,07,10,13,43,14.80
2016,07,10,13,44,14.80
2016,07,10,13,45,14.80
2016,07,10,13,46,14.80
2016,07,10,13,47,14.70
2016,07,10,13,48,14.60
2016,07,10,13,49,14.50
2016,07,10,13,50,14.40
2016,07,10,13,51,14.40
2016,07,10,13,52,14.30
2016,07,10,13,53,14.30
2016,07,10,13,54,14.20
2016,07,10,13,55,14.20
2016,07,10,13,56,14.20
2016,07,10,13,57,14.20
2016,07,10,13,58,14.20
2016,07,10,13,59,14.20
2016,07,10,14,00,14.20
2016,07,10,14,01,14.10
2016,07,10,14,02,14.00
2016,07,10,14,03,13.90
2016,07,10,14,04,13.90
2016,07,10,14,05,13.90
2016,07,10,14,06,13.90
2016,07,10,14,07,13.90
2016,07,10,14,08,13.90
2016,07,10,14,09,13.80
2016,07,10,14,10,13.90
2016,07,10,14,11,13.90
2016,07,10,14,12,14.00
2016,07,10,14,13,14.00
2016,07,10,14,14,14.10
2016,07,10,14,15,14.10
2016,07,10,14,16,14.10
2016,07,10,14,17,14.10
2016,07,10,14,18,14.20
2016,07,10,14,19,14.20
2016,07,10,14,20,14.20
2016,07,10,14,21,14.20
2016,07,10,14,22,14.20
2016,07,10,14,23,14.20
2016,07,10,14,24,14.20
2016,07,10,14,25,14.30
2016,07,10,14,26,14.30
2016,07,10,14,27,14.40
2016,07,10,14,28,14.50
2016,07,10,14,29,14.50
2016,07,10,14,30,14.50
2016,07,10,14,31,14.50
2016,07,10,14,32,14.50
2016,07,10,14,33,14.50
2016,07,10,14,34,14.50
2016,07,10,14,35,14.40
2016,07,10,14,36,14.40
2016,07,10,14,37,14.40
2016,07,10,14,38,14.40
2016,07,10,14,39,14.50
2016,07,10,14,40,14.50
2016,07,10,14,41,14.50
2016,07,10,14,42,14.50
2016,07,10,14,43,14.50
2016,07,10,14,44,14.60
2016,07,10,14,45,14.60
2016,07,10,14,46,14.60
2016,07,10,14,47,14.60
2016,07,10,14,48,14.70
2016,07,10,14,49,14.70
2016,07,10,14,50,14.70
2016,07,10,14,51,14.70
2016,07,10,14,52,14.70
2016,07,10,14,53,14.70
2016,07,10,14,54,14.70
2016,07,10,14,55,14.60
2016,07,10,14,56,14.60
2016,07,10,14,57,14.60
2016,07,10,14,58,14.60
2016,07,10,14,59,14.70
2016,07,10,15,00,14.80
2016,07,10,15,01,14.90
2016,07,10,15,02,14.90
2016,07,10,15,03,15.00
2016,07,10,15,04,15.00
2016,07,10,15,05,15.00
2016,07,10,15,06,15.10
2016,07,10,15,07,15.10
2016,07,10,15,08,15.10
2016,07,10,15,09,15.10
2016,07,10,15,10,15.10
2016,07,10,15,11,15.10
2016,07,10,15,12,15.10
2016,07,10,15,13,15.00
2016,07,10,15,14,15.00
2016,07,10,15,15,15.00
2016,07,10,15,16,15.00
2016,07,10,15,17,15.00
2016,07,10,15,18,15.00
2016,07,10,15,19,15.00
2016,07,10,15,20,15.00
2016,07,10,15,21,15.00
2016,07,10,15,22,15.00
2016,07,10,15,23,15.00
2016,07,10,15,24,14.90
2016,07,10,15,25,14.90
2016,07,10,15,26,14.90
2016,07,10,15,27,14.90
2016,07,10,15,28,14.90
2016,07,10,15,29,14.90
2016,07,10,15,30,14.90
2016,07,10,15,31,14.90
2016,07,10,15,32,14.90
2016,07,10,15,33,15.00
2016,07,10,15,34,15.00
2016,07,10,15,35,15.00
2016,07,10,15,36,15.00
2016,07,10,15,37,15.00
2016,07,10,15,38,15.00
2016,07,10,15,39,15.10
2016,07,10,15,40,15.10
2016,07,10,15,41,15.10
2016,07,10,15,42,15.10
2016,07,10,15,43,15.10
2016,07,10,15,44,15.00
2016,07,10,15,45,15.00
2016,07,10,15,46,14.90
2016,07,10,15,47,15.00
2016,07,10,15,48,15.00
2016,07,10,15,49,15.00
2016,07,10,15,50,15.10
2016,07,10,15,51,15.20
2016,07,10,15,52,15.20
2016,07,10,15,53,15.20
2016,07,10,15,54,15.30
2016,07,10,15,55,15.30
2016,07,10,15,56,15.30
2016,07,10,15,57,15.30
2016,07,10,15,58,15.30
2016,07,10,15,59,15.30
2016,07,10,16,00,15.20
2016,07,10,16,01,15.10
2016,07,10,16,02,15.10
2016,07,10,16,03,15.00
2016,07,10,16,04,15.00
2016,07,10,16,05,15.00
2016,07,10,16,06,15.00
2016,07,10,16,07,15.00
2016,07,10,16,08,15.10
2016,07,10,16,09,15.10
2016,07,10,16,10,15.10
2016,07,10,16,11,15.10
2016,07,10,16,12,15.20
2016,07,10,16,13,15.10
2016,07,10,16,14,15.10
2016,07,10,16,15,15.10
2016,07,10,16,16,15.10
2016,07,10,16,17,15.10
2016,07,10,16,18,15.10
2016,07,10,16,19,15.10
2016,07,10,16,20,15.10
2016,07,10,16,21,15.10
2016,07,10,16,22,15.10
2016,07,10,16,23,15.10
2016,07,10,16,24,15.10
2016,07,10,16,25,15.10
2016,07,10,16,26,15.10
2016,07,10,16,27,15.20
2016,07,10,16,28,15.30
2016,07,10,16,29,15.30
2016,07,10,16,30,15.40
2016,07,10,16,31,15.40
2016,07,10,16,32,15.50
2016,07,10,16,33,15.50
2016,07,10,16,34,15.60
2016,07,10,16,35,15.60
2016,07,10,16,36,15.70
2016,07,10,16,37,15.60
2016,07,10,16,38,15.60
2016,07,10,16,39,15.50
2016,07,10,16,40,15.50
2016,07,10,16,41,15.40
2016,07,10,16,42,15.40
2016,07,10,16,43,15.50
2016,07,10,16,44,15.50
2016,07,10,16,45,15.50
2016,07,10,16,46,15.50
2016,07,10,16,47,15.50
2016,07,10,16,48,15.60
2016,07,10,16,49,15.60
2016,07,10,16,50,15.60
2016,07,10,16,51,15.60
2016,07,10,16,52,15.50
2016,07,10,16,53,15.60
2016,07,10,16,54,15.60
2016,07,10,16,55,15.60
2016,07,10,16,56,15.60
2016,07,10,16,57,15.60
2016,07,10,16,58,15.60
2016,07,10,16,59,15.60
2016,07,10,17,00,15.60
2016,07,10,17,01,15.60
2016,07,10,17,02,15.70
2016,07,10,17,03,15.70
2016,07,10,17,04,15.70
2016,07,10,17,05,15.60
2016,07,10,17,06,15.50
2016,07,10,17,07,15.40
2016,07,10,17,08,15.40
2016,07,10,17,09,15.40
2016,07,10,17,10,15.40
2016,07,10,17,11,15.40
2016,07,10,17,12,15.40
2016,07,10,17,13,15.30
2016,07,10,17,14,15.30
2016,07,10,17,15,15.20
2016,07,10,17,16,15.20
2016,07,10,17,17,15.20
2016,07,10,17,18,15.10
2016,07,10,17,19,15.10
2016,07,10,17,20,15.10
2016,07,10,17,21,15.10
2016,07,10,17,22,15.10
2016,07,10,17,23,15.20
2016,07,10,17,24,15.20
2016,07,10,17,25,15.20
2016,07,10,17,26,15.20
2016,07,10,17,27,15.20
2016,07,10,17,28,15.20
2016,07,10,17,29,15.20
2016,07,10,17,30,15.10
2016,07,10,17,31,15.10
2016,07,10,17,32,15.10
2016,07,10,17,33,15.00
2016,07,10,17,34,15.00
2016,07,10,17,35,15.00
2016,07,10,17,36,15.00
2016,07,10,17,37,14.90
2016,07,10,17,38,14.90
2016,07,10,17,39,14.80
2016,07,10,17,40,14.80
2016,07,10,17,41,14.80
2016,07,10,17,42,14.80
2016,07,10,17,43,14.80
2016,07,10,17,44,14.80
2016,07,10,17,45,14.80
2016,07,10,17,46,14.80
2016,07,10,17,47,14.80
2016,07,10,17,48,14.80
2016,07,10,17,49,14.70
2016,07,10,17,50,14.70
2016,07,10,17,51,14.70
2016,07,10,17,52,14.70